Year,Month,Day,Hour,Minute,Value (Times are PST for temperature in C)
2009,04,25,00,00,8.10
2009,04,25,00,02,8.10
2009,04,25,00,03,8.00
2009,04,25,00,04,8.00
2009,04,25,00,05,8.00
2009,04,25,00,06,8.00
2009,04,25,00,07,8.00
2009,04,25,00,08,8.00
2009,04,25,00,09,7.90
2009,04,25,00,10,7.90
2009,04,25,00,11,7.90
2009,04,25,00,12,7.90
2009,04,25,00,13,7.90
2009,04,25,00,14,7.90
2009,04,25,00,15,7.90
2009,04,25,00,16,7.90
2009,04,25,00,17,7.90
2009,04,25,00,18,7.90
2009,04,25,00,19,7.90
2009,04,25,00,20,7.90
2009,04,25,00,21,7.90
2009,04,25,00,22,7.90
2009,04,25,00,23,7.90
2009,04,25,00,24,7.90
2009,04,25,00,25,7.90
2009,04,25,00,26,7.90
2009,04,25,00,28,7.90
2009,04,25,00,29,7.90
2009,04,25,00,30,7.90
2009,04,25,00,31,7.90
2009,04,25,00,32,7.90
2009,04,25,00,33,7.90
2009,04,25,00,34,7.90
2009,04,25,00,35,7.90
2009,04,25,00,37,7.90
2009,04,25,00,38,7.90
2009,04,25,00,39,7.90
2009,04,25,00,40,7.90
2009,04,25,00,41,7.90
2009,04,25,00,42,7.90
2009,04,25,00,43,7.90
2009,04,25,00,44,7.90
2009,04,25,00,45,7.90
2009,04,25,00,46,7.80
2009,04,25,00,47,7.80
2009,04,25,00,48,7.80
2009,04,25,00,50,7.80
2009,04,25,00,51,7.80
2009,04,25,00,52,7.80
2009,04,25,00,53,7.80
2009,04,25,00,54,7.80
2009,04,25,00,55,7.80
2009,04,25,00,56,7.80
2009,04,25,00,57,7.80
2009,04,25,00,58,7.80
2009,04,25,00,59,7.80
2009,04,25,01,00,7.80
2009,04,25,01,02,7.80
2009,04,25,01,03,7.80
2009,04,25,01,04,7.80
2009,04,25,01,05,7.70
2009,04,25,01,08,7.70
2009,04,25,01,09,7.70
2009,04,25,01,10,7.70
2009,04,25,01,11,7.70
2009,04,25,01,12,7.70
2009,04,25,01,13,7.70
2009,04,25,01,14,7.70
2009,04,25,01,17,7.70
2009,04,25,01,18,7.60
2009,04,25,01,19,7.60
2009,04,25,01,20,7.60
2009,04,25,01,21,7.60
2009,04,25,01,22,7.60
2009,04,25,01,23,7.60
2009,04,25,01,24,7.60
2009,04,25,01,25,7.60
2009,04,25,01,26,7.60
2009,04,25,01,27,7.60
2009,04,25,01,29,7.60
2009,04,25,01,30,7.60
2009,04,25,01,31,7.50
2009,04,25,01,32,7.50
2009,04,25,01,33,7.50
2009,04,25,01,34,7.50
2009,04,25,01,35,7.50
2009,04,25,01,36,7.50
2009,04,25,01,37,7.50
2009,04,25,01,38,7.40
2009,04,25,01,39,7.40
2009,04,25,01,40,7.40
2009,04,25,01,41,7.40
2009,04,25,01,42,7.40
2009,04,25,01,43,7.40
2009,04,25,01,44,7.40
2009,04,25,01,45,7.30
2009,04,25,01,46,7.30
2009,04,25,01,47,7.30
2009,04,25,01,48,7.30
2009,04,25,01,49,7.30
2009,04,25,01,50,7.30
2009,04,25,01,51,7.30
2009,04,25,01,52,7.30
2009,04,25,01,53,7.30
2009,04,25,01,55,7.30
2009,04,25,01,57,7.20
2009,04,25,01,59,7.20
2009,04,25,02,00,7.20
2009,04,25,02,02,7.20
2009,04,25,02,03,7.20
2009,04,25,02,04,7.20
2009,04,25,02,05,7.20
2009,04,25,02,06,7.20
2009,04,25,02,07,7.20
2009,04,25,02,08,7.20
2009,04,25,02,09,7.20
2009,04,25,02,10,7.20
2009,04,25,02,11,7.20
2009,04,25,02,12,7.20
2009,04,25,02,13,7.20
2009,04,25,02,15,7.20
2009,04,25,02,16,7.20
2009,04,25,02,17,7.20
2009,04,25,02,19,7.20
2009,04,25,02,20,7.20
2009,04,25,02,21,7.20
2009,04,25,02,22,7.20
2009,04,25,02,23,7.20
2009,04,25,02,24,7.20
2009,04,25,02,25,7.20
2009,04,25,02,26,7.20
2009,04,25,02,27,7.20
2009,04,25,02,28,7.20
2009,04,25,02,29,7.20
2009,04,25,02,31,7.20
2009,04,25,02,32,7.20
2009,04,25,02,33,7.20
2009,04,25,02,34,7.20
2009,04,25,02,35,7.20
2009,04,25,02,36,7.20
2009,04,25,02,37,7.20
2009,04,25,02,38,7.20
2009,04,25,02,39,7.20
2009,04,25,02,40,7.20
2009,04,25,02,41,7.20
2009,04,25,02,42,7.20
2009,04,25,02,43,7.20
2009,04,25,02,44,7.20
2009,04,25,02,45,7.20
2009,04,25,02,46,7.20
2009,04,25,02,47,7.20
2009,04,25,02,48,7.20
2009,04,25,02,49,7.20
2009,04,25,02,50,7.20
2009,04,25,02,51,7.20
2009,04,25,02,53,7.20
2009,04,25,02,54,7.20
2009,04,25,02,55,7.20
2009,04,25,02,56,7.20
2009,04,25,02,57,7.20
2009,04,25,02,58,7.20
2009,04,25,02,59,7.20
2009,04,25,03,00,7.20
2009,04,25,03,02,7.20
2009,04,25,03,03,7.20
2009,04,25,03,04,7.20
2009,04,25,03,05,7.20
2009,04,25,03,07,7.20
2009,04,25,03,08,7.20
2009,04,25,03,09,7.20
2009,04,25,03,10,7.20
2009,04,25,03,11,7.20
2009,04,25,03,12,7.20
2009,04,25,03,13,7.20
2009,04,25,03,14,7.20
2009,04,25,03,15,7.20
2009,04,25,03,16,7.20
2009,04,25,03,17,7.20
2009,04,25,03,18,7.20
2009,04,25,03,19,7.20
2009,04,25,03,20,7.20
2009,04,25,03,21,7.20
2009,04,25,03,22,7.20
2009,04,25,03,23,7.20
2009,04,25,03,24,7.20
2009,04,25,03,25,7.20
2009,04,25,03,26,7.20
2009,04,25,03,27,7.20
2009,04,25,03,28,7.30
2009,04,25,03,29,7.20
2009,04,25,03,30,7.20
2009,04,25,03,31,7.20
2009,04,25,03,32,7.20
2009,04,25,03,33,7.20
2009,04,25,03,34,7.20
2009,04,25,03,35,7.20
2009,04,25,03,36,7.20
2009,04,25,03,37,7.20
2009,04,25,03,38,7.20
2009,04,25,03,39,7.30
2009,04,25,03,40,7.30
2009,04,25,03,41,7.30
2009,04,25,03,43,7.20
2009,04,25,03,44,7.20
2009,04,25,03,45,7.20
2009,04,25,03,46,7.20
2009,04,25,03,47,7.20
2009,04,25,03,48,7.20
2009,04,25,03,49,7.20
2009,04,25,03,50,7.20
2009,04,25,03,51,7.20
2009,04,25,03,52,7.20
2009,04,25,03,53,7.20
2009,04,25,03,54,7.20
2009,04,25,03,55,7.20
2009,04,25,03,56,7.20
2009,04,25,03,57,7.20
2009,04,25,03,58,7.20
2009,04,25,03,59,7.20
2009,04,25,04,00,7.20
2009,04,25,04,02,7.20
2009,04,25,04,03,7.20
2009,04,25,04,04,7.20
2009,04,25,04,05,7.20
2009,04,25,04,06,7.20
2009,04,25,04,07,7.20
2009,04,25,04,08,7.20
2009,04,25,04,09,7.20
2009,04,25,04,10,7.20
2009,04,25,04,11,7.20
2009,04,25,04,12,7.20
2009,04,25,04,13,7.20
2009,04,25,04,14,7.20
2009,04,25,04,15,7.20
2009,04,25,04,16,7.20
2009,04,25,04,17,7.20
2009,04,25,04,18,7.20
2009,04,25,04,19,7.20
2009,04,25,04,21,7.20
2009,04,25,04,22,7.20
2009,04,25,04,23,7.20
2009,04,25,04,24,7.30
2009,04,25,04,25,7.30
2009,04,25,04,26,7.30
2009,04,25,04,27,7.30
2009,04,25,04,29,7.30
2009,04,25,04,30,7.30
2009,04,25,04,31,7.30
2009,04,25,04,32,7.30
2009,04,25,04,33,7.20
2009,04,25,04,34,7.20
2009,04,25,04,35,7.20
2009,04,25,04,36,7.20
2009,04,25,04,37,7.20
2009,04,25,04,38,7.20
2009,04,25,04,40,7.20
2009,04,25,04,41,7.20
2009,04,25,04,42,7.20
2009,04,25,04,43,7.20
2009,04,25,04,44,7.20
2009,04,25,04,45,7.20
2009,04,25,04,46,7.20
2009,04,25,04,47,7.20
2009,04,25,04,48,7.20
2009,04,25,04,49,7.20
2009,04,25,04,50,7.20
2009,04,25,04,51,7.20
2009,04,25,04,52,7.20
2009,04,25,04,53,7.20
2009,04,25,04,54,7.20
2009,04,25,04,55,7.20
2009,04,25,04,56,7.20
2009,04,25,04,57,7.20
2009,04,25,04,58,7.20
2009,04,25,04,59,7.20
2009,04,25,05,00,7.20
2009,04,25,05,02,7.20
2009,04,25,05,03,7.20
2009,04,25,05,04,7.20
2009,04,25,05,05,7.20
2009,04,25,05,06,7.20
2009,04,25,05,07,7.30
2009,04,25,05,08,7.20
2009,04,25,05,09,7.20
2009,04,25,05,10,7.20
2009,04,25,05,11,7.20
2009,04,25,05,12,7.20
2009,04,25,05,13,7.20
2009,04,25,05,14,7.20
2009,04,25,05,15,7.20
2009,04,25,05,16,7.20
2009,04,25,05,17,7.20
2009,04,25,05,18,7.20
2009,04,25,05,19,7.20
2009,04,25,05,20,7.20
2009,04,25,05,21,7.20
2009,04,25,05,22,7.20
2009,04,25,05,23,7.20
2009,04,25,05,24,7.20
2009,04,25,05,25,7.20
2009,04,25,05,26,7.20
2009,04,25,05,27,7.20
2009,04,25,05,28,7.20
2009,04,25,05,29,7.20
2009,04,25,05,30,7.20
2009,04,25,05,31,7.20
2009,04,25,05,32,7.20
2009,04,25,05,33,7.20
2009,04,25,05,34,7.20
2009,04,25,05,36,7.20
2009,04,25,05,37,7.20
2009,04,25,05,39,7.20
2009,04,25,05,41,7.20
2009,04,25,05,42,7.20
2009,04,25,05,43,7.20
2009,04,25,05,44,7.20
2009,04,25,05,45,7.20
2009,04,25,05,46,7.20
2009,04,25,05,47,7.10
2009,04,25,05,48,7.10
2009,04,25,05,49,7.10
2009,04,25,05,50,7.10
2009,04,25,05,51,7.10
2009,04,25,05,52,7.10
2009,04,25,05,53,7.00
2009,04,25,05,54,7.00
2009,04,25,05,55,7.00
2009,04,25,05,56,6.90
2009,04,25,05,57,6.90
2009,04,25,05,58,6.90
2009,04,25,05,59,6.90
2009,04,25,06,00,6.80
2009,04,25,06,02,6.80
2009,04,25,06,03,6.80
2009,04,25,06,04,6.80
2009,04,25,06,05,6.70
2009,04,25,06,06,6.70
2009,04,25,06,07,6.70
2009,04,25,06,08,6.70
2009,04,25,06,09,6.70
2009,04,25,06,10,6.70
2009,04,25,06,11,6.70
2009,04,25,06,12,6.70
2009,04,25,06,13,6.70
2009,04,25,06,14,6.60
2009,04,25,06,15,6.60
2009,04,25,06,16,6.60
2009,04,25,06,18,6.50
2009,04,25,06,19,6.50
2009,04,25,06,20,6.40
2009,04,25,06,21,6.40
2009,04,25,06,22,6.40
2009,04,25,06,23,6.40
2009,04,25,06,24,6.40
2009,04,25,06,25,6.40
2009,04,25,06,26,6.40
2009,04,25,06,27,6.30
2009,04,25,06,28,6.30
2009,04,25,06,29,6.30
2009,04,25,06,30,6.30
2009,04,25,06,31,6.30
2009,04,25,06,32,6.30
2009,04,25,06,33,6.30
2009,04,25,06,35,6.30
2009,04,25,06,36,6.20
2009,04,25,06,37,6.20
2009,04,25,06,38,6.20
2009,04,25,06,39,6.20
2009,04,25,06,40,6.20
2009,04,25,06,41,6.20
2009,04,25,06,42,6.20
2009,04,25,06,43,6.10
2009,04,25,06,44,6.10
2009,04,25,06,45,6.10
2009,04,25,06,46,6.10
2009,04,25,06,47,6.10
2009,04,25,06,48,6.10
2009,04,25,06,49,6.10
2009,04,25,06,50,6.00
2009,04,25,06,51,6.00
2009,04,25,06,52,6.00
2009,04,25,06,53,6.10
2009,04,25,06,54,6.10
2009,04,25,06,55,6.10
2009,04,25,06,56,6.10
2009,04,25,06,57,6.00
2009,04,25,06,58,6.00
2009,04,25,06,59,6.10
2009,04,25,07,00,6.10
2009,04,25,07,02,6.10
2009,04,25,07,03,6.20
2009,04,25,07,04,6.20
2009,04,25,07,05,6.20
2009,04,25,07,06,6.20
2009,04,25,07,07,6.20
2009,04,25,07,08,6.20
2009,04,25,07,09,6.20
2009,04,25,07,10,6.20
2009,04,25,07,12,6.20
2009,04,25,07,13,6.20
2009,04,25,07,14,6.20
2009,04,25,07,15,6.30
2009,04,25,07,16,6.30
2009,04,25,07,17,6.30
2009,04,25,07,18,6.40
2009,04,25,07,19,6.40
2009,04,25,07,20,6.50
2009,04,25,07,21,6.60
2009,04,25,07,22,6.60
2009,04,25,07,24,6.70
2009,04,25,07,25,6.80
2009,04,25,07,26,6.90
2009,04,25,07,27,7.00
2009,04,25,07,28,7.10
2009,04,25,07,29,7.20
2009,04,25,07,30,7.20
2009,04,25,07,31,7.30
2009,04,25,07,32,7.30
2009,04,25,07,33,7.40
2009,04,25,07,34,7.50
2009,04,25,07,35,7.60
2009,04,25,07,37,7.70
2009,04,25,07,38,7.70
2009,04,25,07,39,7.70
2009,04,25,07,40,7.80
2009,04,25,07,41,7.80
2009,04,25,07,43,7.80
2009,04,25,07,44,7.90
2009,04,25,07,45,7.90
2009,04,25,07,46,8.10
2009,04,25,07,47,8.10
2009,04,25,07,48,8.20
2009,04,25,07,49,8.20
2009,04,25,07,50,8.30
2009,04,25,07,51,8.30
2009,04,25,07,52,8.30
2009,04,25,07,53,8.40
2009,04,25,07,54,8.40
2009,04,25,07,55,8.40
2009,04,25,07,56,8.40
2009,04,25,07,57,8.50
2009,04,25,07,58,8.50
2009,04,25,07,59,8.40
2009,04,25,08,00,8.40
2009,04,25,08,02,8.30
2009,04,25,08,03,8.20
2009,04,25,08,04,8.20
2009,04,25,08,05,8.20
2009,04,25,08,06,8.20
2009,04,25,08,07,8.20
2009,04,25,08,08,8.20
2009,04,25,08,09,8.30
2009,04,25,08,10,8.30
2009,04,25,08,11,8.30
2009,04,25,08,12,8.30
2009,04,25,08,13,8.30
2009,04,25,08,14,8.30
2009,04,25,08,15,8.30
2009,04,25,08,16,8.30
2009,04,25,08,17,8.30
2009,04,25,08,18,8.40
2009,04,25,08,19,8.50
2009,04,25,08,20,8.60
2009,04,25,08,21,8.60
2009,04,25,08,22,8.60
2009,04,25,08,23,8.70
2009,04,25,08,24,8.70
2009,04,25,08,25,8.70
2009,04,25,08,26,8.80
2009,04,25,08,27,8.80
2009,04,25,08,28,8.90
2009,04,25,08,29,9.00
2009,04,25,08,30,9.10
2009,04,25,08,31,9.10
2009,04,25,08,32,9.20
2009,04,25,08,33,9.20
2009,04,25,08,34,9.30
2009,04,25,08,35,9.40
2009,04,25,08,37,9.60
2009,04,25,08,38,9.70
2009,04,25,08,39,9.70
2009,04,25,08,40,9.80
2009,04,25,08,41,9.90
2009,04,25,08,42,9.90
2009,04,25,08,43,10.10
2009,04,25,08,44,10.10
2009,04,25,08,45,10.20
2009,04,25,08,46,10.20
2009,04,25,08,47,10.20
2009,04,25,08,48,10.20
2009,04,25,08,49,10.20
2009,04,25,08,50,10.20
2009,04,25,08,51,10.20
2009,04,25,08,52,10.30
2009,04,25,08,53,10.20
2009,04,25,08,54,10.20
2009,04,25,08,55,10.20
2009,04,25,08,56,10.20
2009,04,25,08,57,10.30
2009,04,25,08,58,10.30
2009,04,25,08,59,10.30
2009,04,25,09,00,10.30
2009,04,25,09,02,10.30
2009,04,25,09,03,10.30
2009,04,25,09,04,10.20
2009,04,25,09,05,10.20
2009,04,25,09,06,10.20
2009,04,25,09,07,10.20
2009,04,25,09,08,10.30
2009,04,25,09,09,10.30
2009,04,25,09,10,10.30
2009,04,25,09,11,10.30
2009,04,25,09,12,10.30
2009,04,25,09,13,10.30
2009,04,25,09,14,10.30
2009,04,25,09,15,10.30
2009,04,25,09,16,10.30
2009,04,25,09,17,10.30
2009,04,25,09,18,10.40
2009,04,25,09,19,10.40
2009,04,25,09,20,10.40
2009,04,25,09,21,10.40
2009,04,25,09,22,10.40
2009,04,25,09,23,10.40
2009,04,25,09,24,10.40
2009,04,25,09,25,10.50
2009,04,25,09,26,10.50
2009,04,25,09,27,10.50
2009,04,25,09,28,10.50
2009,04,25,09,29,10.60
2009,04,25,09,30,10.50
2009,04,25,09,31,10.40
2009,04,25,09,32,10.40
2009,04,25,09,33,10.30
2009,04,25,09,34,10.20
2009,04,25,09,35,10.20
2009,04,25,09,36,10.10
2009,04,25,09,37,10.00
2009,04,25,09,38,10.00
2009,04,25,09,39,10.00
2009,04,25,09,40,10.00
2009,04,25,09,41,10.00
2009,04,25,09,42,10.00
2009,04,25,09,43,10.10
2009,04,25,09,44,10.10
2009,04,25,09,46,10.20
2009,04,25,09,47,10.20
2009,04,25,09,48,10.30
2009,04,25,09,49,10.30
2009,04,25,09,50,10.40
2009,04,25,09,51,10.40
2009,04,25,09,52,10.50
2009,04,25,09,53,10.60
2009,04,25,09,54,10.60
2009,04,25,09,55,10.60
2009,04,25,09,56,10.60
2009,04,25,09,57,10.70
2009,04,25,09,58,10.70
2009,04,25,09,59,10.70
2009,04,25,10,00,10.80
2009,04,25,10,02,10.80
2009,04,25,10,04,10.80
2009,04,25,10,05,10.80
2009,04,25,10,06,10.80
2009,04,25,10,07,10.80
2009,04,25,10,08,10.80
2009,04,25,10,09,10.80
2009,04,25,10,10,10.80
2009,04,25,10,11,10.70
2009,04,25,10,12,10.80
2009,04,25,10,13,10.80
2009,04,25,10,14,10.80
2009,04,25,10,15,10.80
2009,04,25,10,16,10.80
2009,04,25,10,17,10.90
2009,04,25,10,18,10.90
2009,04,25,10,19,10.90
2009,04,25,10,20,11.00
2009,04,25,10,21,11.00
2009,04,25,10,22,11.00
2009,04,25,10,23,11.00
2009,04,25,10,24,11.10
2009,04,25,10,25,11.10
2009,04,25,10,26,11.10
2009,04,25,10,27,11.10
2009,04,25,10,28,11.10
2009,04,25,10,29,11.10
2009,04,25,10,30,11.20
2009,04,25,10,32,11.30
2009,04,25,10,33,11.30
2009,04,25,10,34,11.40
2009,04,25,10,35,11.50
2009,04,25,10,36,11.60
2009,04,25,10,37,11.60
2009,04,25,10,38,11.70
2009,04,25,10,39,11.70
2009,04,25,10,40,11.80
2009,04,25,10,41,11.80
2009,04,25,10,42,11.90
2009,04,25,10,43,12.00
2009,04,25,10,44,12.20
2009,04,25,10,45,12.20
2009,04,25,10,46,12.20
2009,04,25,10,47,12.30
2009,04,25,10,48,12.20
2009,04,25,10,49,12.10
2009,04,25,10,50,12.10
2009,04,25,10,51,12.10
2009,04,25,10,52,12.10
2009,04,25,10,53,12.10
2009,04,25,10,54,12.10
2009,04,25,10,55,12.10
2009,04,25,10,56,12.10
2009,04,25,10,57,12.10
2009,04,25,10,58,12.10
2009,04,25,10,59,12.10
2009,04,25,11,00,12.10
2009,04,25,11,02,12.20
2009,04,25,11,03,12.20
2009,04,25,11,04,12.20
2009,04,25,11,05,12.20
2009,04,25,11,06,12.20
2009,04,25,11,07,12.30
2009,04,25,11,08,12.20
2009,04,25,11,09,12.30
2009,04,25,11,10,12.30
2009,04,25,11,11,12.40
2009,04,25,11,12,12.40
2009,04,25,11,13,12.60
2009,04,25,11,14,12.60
2009,04,25,11,15,12.70
2009,04,25,11,16,12.70
2009,04,25,11,17,12.80
2009,04,25,11,18,12.90
2009,04,25,11,19,13.00
2009,04,25,11,20,13.10
2009,04,25,11,21,13.20
2009,04,25,11,22,13.30
2009,04,25,11,23,13.40
2009,04,25,11,24,13.60
2009,04,25,11,25,13.50
2009,04,25,11,26,13.40
2009,04,25,11,27,13.40
2009,04,25,11,28,13.40
2009,04,25,11,29,13.50
2009,04,25,11,30,13.50
2009,04,25,11,31,13.50
2009,04,25,11,32,13.50
2009,04,25,11,33,13.60
2009,04,25,11,34,13.60
2009,04,25,11,35,13.70
2009,04,25,11,36,13.70
2009,04,25,11,37,13.70
2009,04,25,11,38,13.70
2009,04,25,11,39,13.70
2009,04,25,11,40,13.60
2009,04,25,11,41,13.70
2009,04,25,11,42,13.70
2009,04,25,11,43,13.70
2009,04,25,11,44,13.70
2009,04,25,11,45,13.70
2009,04,25,11,46,13.70
2009,04,25,11,47,13.70
2009,04,25,11,48,13.70
2009,04,25,11,49,13.70
2009,04,25,11,50,13.70
2009,04,25,11,51,13.70
2009,04,25,11,52,13.70
2009,04,25,11,53,13.70
2009,04,25,11,54,13.70
2009,04,25,11,55,13.70
2009,04,25,11,57,13.70
2009,04,25,11,58,13.70
2009,04,25,11,59,13.50
2009,04,25,12,00,13.40
2009,04,25,12,02,13.30
2009,04,25,12,03,13.40
2009,04,25,12,04,13.40
2009,04,25,12,05,13.50
2009,04,25,12,06,13.60
2009,04,25,12,07,13.70
2009,04,25,12,08,13.80
2009,04,25,12,09,13.80
2009,04,25,12,10,13.90
2009,04,25,12,11,13.90
2009,04,25,12,12,14.10
2009,04,25,12,13,14.10
2009,04,25,12,14,14.20
2009,04,25,12,15,14.30
2009,04,25,12,16,14.40
2009,04,25,12,17,14.50
2009,04,25,12,18,14.60
2009,04,25,12,19,14.70
2009,04,25,12,20,14.80
2009,04,25,12,21,15.00
2009,04,25,12,22,15.00
2009,04,25,12,23,15.00
2009,04,25,12,24,15.00
2009,04,25,12,25,15.00
2009,04,25,12,26,15.10
2009,04,25,12,27,15.10
2009,04,25,12,28,15.20
2009,04,25,12,29,15.30
2009,04,25,12,30,15.30
2009,04,25,12,31,15.30
2009,04,25,12,32,15.40
2009,04,25,12,33,15.40
2009,04,25,12,34,15.40
2009,04,25,12,35,15.40
2009,04,25,12,36,15.40
2009,04,25,12,37,15.40
2009,04,25,12,38,15.40
2009,04,25,12,39,15.50
2009,04,25,12,40,15.60
2009,04,25,12,41,15.60
2009,04,25,12,42,15.70
2009,04,25,12,43,15.80
2009,04,25,12,44,15.80
2009,04,25,12,45,15.90
2009,04,25,12,46,16.00
2009,04,25,12,47,16.00
2009,04,25,12,48,15.90
2009,04,25,12,49,15.80
2009,04,25,12,50,15.70
2009,04,25,12,51,15.70
2009,04,25,12,52,15.70
2009,04,25,12,53,15.80
2009,04,25,12,54,15.90
2009,04,25,12,55,15.90
2009,04,25,12,56,16.00
2009,04,25,12,57,16.00
2009,04,25,12,58,15.80
2009,04,25,12,59,15.80
2009,04,25,13,00,15.80
2009,04,25,13,02,15.40
2009,04,25,13,03,15.30
2009,04,25,13,04,15.10
2009,04,25,13,05,15.00
2009,04,25,13,06,15.00
2009,04,25,13,07,14.80
2009,04,25,13,08,14.60
2009,04,25,13,09,14.50
2009,04,25,13,10,14.40
2009,04,25,13,11,14.20
2009,04,25,13,12,13.90
2009,04,25,13,13,13.90
2009,04,25,13,14,13.80
2009,04,25,13,15,13.80
2009,04,25,13,16,13.90
2009,04,25,13,17,14.00
2009,04,25,13,18,14.10
2009,04,25,13,19,14.20
2009,04,25,13,20,14.30
2009,04,25,13,21,14.40
2009,04,25,13,22,14.50
2009,04,25,13,23,14.60
2009,04,25,13,24,14.70
2009,04,25,13,25,14.80
2009,04,25,13,26,14.90
2009,04,25,13,27,15.00
2009,04,25,13,28,15.00
2009,04,25,13,29,15.00
2009,04,25,13,30,15.00
2009,04,25,13,31,15.00
2009,04,25,13,32,15.00
2009,04,25,13,33,15.00
2009,04,25,13,34,15.00
2009,04,25,13,35,15.00
2009,04,25,13,36,15.20
2009,04,25,13,37,15.20
2009,04,25,13,38,15.30
2009,04,25,13,39,15.40
2009,04,25,13,40,15.50
2009,04,25,13,41,15.60
2009,04,25,13,42,15.60
2009,04,25,13,44,15.50
2009,04,25,13,45,15.50
2009,04,25,13,46,15.50
2009,04,25,13,47,15.40
2009,04,25,13,48,15.40
2009,04,25,13,49,15.40
2009,04,25,13,50,15.30
2009,04,25,13,51,15.30
2009,04,25,13,52,15.20
2009,04,25,13,53,15.20
2009,04,25,13,54,15.10
2009,04,25,13,55,15.00
2009,04,25,13,56,15.00
2009,04,25,13,57,14.90
2009,04,25,13,58,14.80
2009,04,25,13,59,14.80
2009,04,25,14,00,14.80
2009,04,25,14,02,14.70
2009,04,25,14,03,14.80
2009,04,25,14,04,14.80
2009,04,25,14,05,14.80
2009,04,25,14,06,14.90
2009,04,25,14,07,15.00
2009,04,25,14,08,15.00
2009,04,25,14,09,15.10
2009,04,25,14,10,15.00
2009,04,25,14,11,15.00
2009,04,25,14,12,15.00
2009,04,25,14,13,15.00
2009,04,25,14,14,15.00
2009,04,25,14,15,15.20
2009,04,25,14,16,15.40
2009,04,25,14,17,15.60
2009,04,25,14,18,15.80
2009,04,25,14,19,15.90
2009,04,25,14,20,16.20
2009,04,25,14,21,16.30
2009,04,25,14,22,16.60
2009,04,25,14,23,16.70
2009,04,25,14,24,16.90
2009,04,25,14,25,17.10
2009,04,25,14,26,17.10
2009,04,25,14,27,16.90
2009,04,25,14,28,16.90
2009,04,25,14,29,16.90
2009,04,25,14,30,16.90
2009,04,25,14,31,17.00
2009,04,25,14,32,17.10
2009,04,25,14,33,17.10
2009,04,25,14,34,17.10
2009,04,25,14,35,17.10
2009,04,25,14,36,17.10
2009,04,25,14,37,17.10
2009,04,25,14,38,17.10
2009,04,25,14,39,17.00
2009,04,25,14,40,17.00
2009,04,25,14,41,16.90
2009,04,25,14,42,16.80
2009,04,25,14,43,16.80
2009,04,25,14,44,16.70
2009,04,25,14,45,16.70
2009,04,25,14,46,16.70
2009,04,25,14,47,16.70
2009,04,25,14,48,16.70
2009,04,25,14,49,16.70
2009,04,25,14,50,16.70
2009,04,25,14,51,16.80
2009,04,25,14,52,16.90
2009,04,25,14,53,17.10
2009,04,25,14,54,17.20
2009,04,25,14,55,17.20
2009,04,25,14,56,17.30
2009,04,25,14,57,17.40
2009,04,25,14,58,17.60
2009,04,25,14,59,17.70
2009,04,25,15,00,17.70
2009,04,25,15,02,17.70
2009,04,25,15,03,17.70
2009,04,25,15,04,17.80
2009,04,25,15,05,17.80
2009,04,25,15,06,17.90
2009,04,25,15,07,17.90
2009,04,25,15,08,18.00
2009,04,25,15,09,17.90
2009,04,25,15,11,17.80
2009,04,25,15,12,17.70
2009,04,25,15,13,17.70
2009,04,25,15,14,17.60
2009,04,25,15,15,17.40
2009,04,25,15,16,17.40
2009,04,25,15,17,17.20
2009,04,25,15,18,16.90
2009,04,25,15,19,16.80
2009,04,25,15,20,16.40
2009,04,25,15,21,16.30
2009,04,25,15,22,16.20
2009,04,25,15,23,16.20
2009,04,25,15,24,16.30
2009,04,25,15,25,16.40
2009,04,25,15,26,16.60
2009,04,25,15,27,16.70
2009,04,25,15,28,16.80
2009,04,25,15,29,16.90
2009,04,25,15,30,17.00
2009,04,25,15,31,17.10
2009,04,25,15,32,17.20
2009,04,25,15,33,17.20
2009,04,25,15,34,17.20
2009,04,25,15,35,17.10
2009,04,25,15,36,17.00
2009,04,25,15,37,16.90
2009,04,25,15,38,16.90
2009,04,25,15,39,16.80
2009,04,25,15,40,16.70
2009,04,25,15,41,16.70
2009,04,25,15,42,16.60
2009,04,25,15,43,16.50
2009,04,25,15,44,16.40
2009,04,25,15,45,16.40
2009,04,25,15,46,16.30
2009,04,25,15,47,16.20
2009,04,25,15,48,16.10
2009,04,25,15,49,15.90
2009,04,25,15,50,15.90
2009,04,25,15,51,15.80
2009,04,25,15,52,15.80
2009,04,25,15,53,15.80
2009,04,25,15,54,15.80
2009,04,25,15,55,15.90
2009,04,25,15,56,16.10
2009,04,25,15,57,16.20
2009,04,25,15,58,16.30
2009,04,25,15,59,16.40
2009,04,25,16,00,16.40
2009,04,25,16,02,16.70
2009,04,25,16,03,16.80
2009,04,25,16,04,16.90
2009,04,25,16,05,17.00
2009,04,25,16,06,17.00
2009,04,25,16,07,16.90
2009,04,25,16,08,16.90
2009,04,25,16,09,16.90
2009,04,25,16,10,16.90
2009,04,25,16,11,16.90
2009,04,25,16,12,16.90
2009,04,25,16,13,16.90
2009,04,25,16,14,16.90
2009,04,25,16,15,16.90
2009,04,25,16,16,16.90
2009,04,25,16,17,16.80
2009,04,25,16,18,16.80
2009,04,25,16,19,16.80
2009,04,25,16,20,16.80
2009,04,25,16,21,16.80
2009,04,25,16,22,16.80
2009,04,25,16,23,16.70
2009,04,25,16,24,16.60
2009,04,25,16,25,16.30
2009,04,25,16,26,16.20
2009,04,25,16,27,16.00
2009,04,25,16,28,15.90
2009,04,25,16,29,15.80
2009,04,25,16,30,15.80
2009,04,25,16,31,15.70
2009,04,25,16,32,15.70
2009,04,25,16,33,15.70
2009,04,25,16,34,15.70
2009,04,25,16,35,15.80
2009,04,25,16,36,15.80
2009,04,25,16,37,15.70
2009,04,25,16,38,15.70
2009,04,25,16,39,15.70
2009,04,25,16,40,15.70
2009,04,25,16,41,15.70
2009,04,25,16,42,15.70
2009,04,25,16,43,15.80
2009,04,25,16,44,15.90
2009,04,25,16,45,16.00
2009,04,25,16,46,16.10
2009,04,25,16,47,16.10
2009,04,25,16,48,16.00
2009,04,25,16,49,15.90
2009,04,25,16,50,15.90
2009,04,25,16,51,15.80
2009,04,25,16,52,15.80
2009,04,25,16,53,15.70
2009,04,25,16,54,15.70
2009,04,25,16,55,15.60
2009,04,25,16,56,15.60
2009,04,25,16,57,15.60
2009,04,25,16,58,15.50
2009,04,25,16,59,15.60
2009,04,25,17,00,15.60
2009,04,25,17,02,15.60
2009,04,25,17,03,15.60
2009,04,25,17,04,15.60
2009,04,25,17,05,15.60
2009,04,25,17,06,15.60
2009,04,25,17,07,15.60
2009,04,25,17,08,15.70
2009,04,25,17,09,15.70
2009,04,25,17,10,15.60
2009,04,25,17,11,15.60
2009,04,25,17,12,15.50
2009,04,25,17,13,15.50
2009,04,25,17,14,15.50
2009,04,25,17,15,15.50
2009,04,25,17,16,15.60
2009,04,25,17,17,15.60
2009,04,25,17,18,15.60
2009,04,25,17,19,15.70
2009,04,25,17,20,15.70
2009,04,25,17,21,15.70
2009,04,25,17,22,15.70
2009,04,25,17,23,15.70
2009,04,25,17,24,15.80
2009,04,25,17,25,15.80
2009,04,25,17,26,15.80
2009,04,25,17,27,15.80
2009,04,25,17,28,15.70
2009,04,25,17,29,15.70
2009,04,25,17,30,15.70
2009,04,25,17,31,15.60
2009,04,25,17,32,15.60
2009,04,25,17,33,15.50
2009,04,25,17,34,15.50
2009,04,25,17,35,15.50
2009,04,25,17,36,15.50
2009,04,25,17,37,15.50
2009,04,25,17,38,15.50
2009,04,25,17,39,15.40
2009,04,25,17,40,15.40
2009,04,25,17,41,15.30
2009,04,25,17,42,15.30
2009,04,25,17,43,15.30
2009,04,25,17,44,15.20
2009,04,25,17,45,15.20
2009,04,25,17,46,15.10
2009,04,25,17,47,15.10
2009,04,25,17,48,15.10
2009,04,25,17,49,15.10
2009,04,25,17,50,15.00
2009,04,25,17,51,15.00
2009,04,25,17,52,15.00
2009,04,25,17,53,15.00
2009,04,25,17,54,15.00
2009,04,25,17,55,15.00
2009,04,25,17,56,15.00
2009,04,25,17,57,15.00
2009,04,25,17,58,15.00
2009,04,25,17,59,15.00
2009,04,25,18,00,15.00
2009,04,25,18,02,15.00
2009,04,25,18,03,14.90
2009,04,25,18,04,14.90
2009,04,25,18,05,14.80
2009,04,25,18,06,14.80
2009,04,25,18,07,14.70
2009,04,25,18,08,14.70
2009,04,25,18,09,14.70
2009,04,25,18,10,14.70
2009,04,25,18,11,14.70
2009,04,25,18,12,14.70
2009,04,25,18,13,14.70
2009,04,25,18,14,14.70
2009,04,25,18,15,14.80
2009,04,25,18,16,14.80
2009,04,25,18,17,14.80
2009,04,25,18,18,14.80
2009,04,25,18,19,14.80
2009,04,25,18,20,14.90
2009,04,25,18,21,14.90
2009,04,25,18,22,14.90
2009,04,25,18,23,14.90
2009,04,25,18,24,14.90
2009,04,25,18,25,14.90
2009,04,25,18,26,14.90
2009,04,25,18,27,14.90
2009,04,25,18,28,14.90
2009,04,25,18,29,14.90
2009,04,25,18,30,14.90
2009,04,25,18,31,14.90
2009,04,25,18,32,14.80
2009,04,25,18,33,14.80
2009,04,25,18,34,14.80
2009,04,25,18,35,14.80